Powrót do katalogu

STARLINK-35581

AktywnyŁącznośćVLEO
NORAD 66479·PAYLOAD·🇺🇸 United States

Wystrzelony Nov 15, 2025 z Cape Canaveral Space Force Station

Loading…

Następne Przeloty (najbliższe 24 godziny)

TLE

ŚwieżeSource: CelesTrak SupGP

Epoka: Sep 14, 2026, 23:02 UTC

1 66479C 25262Z   26257.96020833  .00013379  00000+0  48458-3 0  2573
2 66479  43.0029 306.8748 0001635 266.2492 229.3886 15.27571190    11

Śledź STARLINK-35581 w czasie rzeczywistym z AllMySat

Download on the App Store